Weather History for Pueblo, CO

Change the Weather History Date:

Sunday, August 4, 2013

  Actual Average Record
Temperature  
Mean Temperature 74 °F 75 °F  
Max Temperature 86 °F 91 °F 101 °F (1979)
Min Temperature 62 °F 59 °F 50 °F (1986)
Degree Days  
Heating Degree Days 0 0  
Month to date heating degree days 0 0  
Since 1 June heating degree days 17 26  
Since 1 July heating degree days 0 1  
Cooling Degree Days 9 10  
Month to date cooling degree days 50 40  
Year to date cooling degree days 789 585  
Since 1 June cooling degree days 716 551  
Growing Degree Days 24 (Base 50)    
Moisture  
Dew Point 61 °F    
Average Humidity 71    
Maximum Humidity 100    
Minimum Humidity 42    
Precipitation  
Precipitation 0.02 in 0.09 in 0.69 in (1910)
Month to date precipitation 0.57 0.32  
Year to date precipitation 4.45 8.23  
Snow  
Snow 0.00 in 0.00 in 0.00 in (2002)
Month to date snowfall 0.0 0.0  
Since 1 June snowfall T 0.0  
Since 1 July snowfall T 0.0  
Snow Depth 0.00 in    
Sea Level Pressure  
Sea Level Pressure 30.02 in    
Wind  
Wind Speed 6 mph (West)    
Max Wind Speed 29 mph    
Max Gust Speed 33 mph    
Visibility 10 miles    
Events Rain    
T = Trace of Precipitation, MM = Missing Value Source: NWS Daily Summary

Daily Weather History Graph

Daily Weather History Graph

Search for Another Location

Airport:

Trip Planner

Search our weather history database for the weather conditions in past years. The results will help you decide how hot, cold, wet, or windy it might be!

Date:

Astronomy

Aug. 04, 2013 Rise Set
Actual Time 6:03 AM MDT 8:04 PM MDT
Civil Twilight 5:34 AM MDT 8:33 PM MDT
Nautical Twilight 4:58 AM MDT 9:08 PM MDT
Astronomical Twilight 4:20 AM MDT 9:46 PM MDT
Moon 4:06 AM MDT (8/4) 6:29 PM MDT (8/4)
Length of Visible Light 14h 59m
Length of Day
14h 01m
Waning Crescent, 4% of the Moon is Illuminated
Aug 4
Waning Crescent
Aug 6
New
Aug 14
First Quarter
Aug 20
Full
Aug 28
Last Quarter

Hourly Weather History & Observations

Time (MDT) Temp. Heat Index Dew Point Humidity Pressure Visibility Wind Dir Wind Speed Gust Speed Precip Events Conditions
12:22 AM 64.4 °F - 62.6 °F 94% 30.25 in 10.0 mi NNW 8.1 mph - N/A   Mostly Cloudy
12:32 AM 64.4 °F - 62.6 °F 94% 30.24 in 10.0 mi NNW 4.6 mph - N/A   Scattered Clouds
12:48 AM 66.2 °F - 62.6 °F 88% 30.24 in 10.0 mi WNW 3.5 mph - N/A   Mostly Cloudy
12:53 AM 66.0 °F - 62.1 °F 87% 30.05 in 10.0 mi NW 4.6 mph - N/A   Mostly Cloudy
1:44 AM 66.2 °F - 62.6 °F 88% 30.24 in 10.0 mi WSW 4.6 mph - N/A   Overcast
1:53 AM 66.0 °F - 62.1 °F 87% 30.04 in 10.0 mi SW 6.9 mph - N/A   Overcast
2:53 AM 64.9 °F - 62.1 °F 90% 30.00 in 10.0 mi WNW 4.6 mph - N/A   Partly Cloudy
3:53 AM 64.0 °F - 62.1 °F 93% 29.98 in 10.0 mi WNW 4.6 mph - N/A   Clear
4:53 AM 63.0 °F - 62.1 °F 97% 29.98 in 10.0 mi Calm Calm - N/A   Clear
5:53 AM 63.0 °F - 61.0 °F 93% 29.99 in 10.0 mi Calm Calm - N/A   Clear
6:53 AM 63.0 °F - 61.0 °F 93% 29.99 in 10.0 mi Calm Calm - N/A   Clear
7:53 AM 66.9 °F - 61.0 °F 81% 30.04 in 10.0 mi Calm Calm - N/A   Clear
8:53 AM 69.1 °F - 61.0 °F 75% 30.02 in 10.0 mi NW 5.8 mph - N/A   Clear
9:53 AM 71.1 °F - 62.1 °F 73% 30.01 in 10.0 mi Calm Calm - N/A   Partly Cloudy
10:53 AM 73.9 °F - 62.1 °F 66% 30.01 in 10.0 mi SSE 4.6 mph - N/A   Clear
11:53 AM 77.0 °F - 61.0 °F 58% 29.99 in 10.0 mi Variable 3.5 mph - N/A   Clear
12:53 PM 80.1 °F 80.9 °F 60.1 °F 50% 29.96 in 10.0 mi South 4.6 mph - N/A   Clear
1:53 PM 82.0 °F 83.0 °F 62.1 °F 51% 29.94 in 10.0 mi ESE 9.2 mph - N/A   Clear
2:53 PM 82.9 °F 83.3 °F 61.0 °F 47% 29.92 in 10.0 mi ESE 10.4 mph - N/A   Clear
3:53 PM 84.0 °F 84.9 °F 63.0 °F 49% 29.90 in 10.0 mi SSE 12.7 mph 19.6 mph N/A   Clear
4:53 PM 84.9 °F 85.0 °F 61.0 °F 44% 29.91 in 10.0 mi SSE 9.2 mph - N/A   Clear
5:53 PM 84.9 °F 84.4 °F 59.0 °F 41% 29.91 in 10.0 mi SE 5.8 mph - N/A   Clear
6:53 PM 82.9 °F 82.8 °F 59.0 °F 44% 29.94 in 10.0 mi Calm Calm - N/A   Clear
7:53 PM 78.1 °F - 54.0 °F 43% 29.96 in 10.0 mi NNW 20.7 mph 27.6 mph N/A   Partly Cloudy
8:53 PM 71.1 °F - 57.9 °F 63% 30.03 in 10.0 mi SW 11.5 mph - 0.00 in Rain Light Rain
9:53 PM 68.0 °F - 60.1 °F 76% 30.06 in 10.0 mi WNW 8.1 mph - 0.02 in   Overcast
10:53 PM 68.0 °F - 62.1 °F 81% 30.03 in 10.0 mi WNW 6.9 mph - N/A   Clear
11:53 PM 69.1 °F - 60.1 °F 73% 30.00 in 10.0 mi WNW 11.5 mph - N/A   Mostly Cloudy